East Davis: Past 24 Hour Conditions

 

Cape Dorset Airport

02:00 AM EDT 01 November 2014
This table is a summary of hourly weather conditions for the past 24 hours.
Date / Time
(EDT)
Wind(knots) Conditions Visibility(km) Pressure(kPa) Air tempC) Relative humidity(%) Dew pointC) Wind Chill
01 November 2014
2:00 NNE 11 gust 18 Cloudy 16 101.2 -1 90 -3 -7
1:00 N 15 gust 21 Cloudy 16 101.1 -1 89 -3 -8
0:00 N 14 gust 20 Cloudy 16 101.1 -1 89 -3 -8
31 October 2014
23:00 N 19 Cloudy 16 101.0 -2 89 -3 -9
22:00 N 17 gust 26 Cloudy 16 101.0 -2 88 -3 -9
21:00 N 14 gust 23 Light Snow 16 101.0 -2 88 -4 -8
20:00 NNW 10 gust 17 Cloudy 16 101.0 -2 88 -4 -7
19:00 WNW 16 gust 22 Light Snow 16 100.9 -2 87 -4 -9
18:00 NW 15 gust 24 Cloudy 16 100.9 -2 87 -4 -9
17:00 NW 16 gust 25 Drifting Snow 24 100.9 -2 86 -4 -9
16:00 NW 17 gust 22 Drifting Snow 24 100.8 -2 86 -4 -10
15:00 NNW 14 gust 20 Drifting Snow 24 100.8 -2 87 -4 -9
14:00 NW 17 gust 23 Drifting Snow 24 100.8 -3 86 -5 -10
13:00 NNW 18 gust 25 Drifting Snow 24 100.8 -3 86 -5 -11
12:00 NNW 19 gust 26 Drifting Snow 24 100.7 -4 87 -6 -12
11:00 NW 20 Drifting Snow 24 100.8 -4 86 -6 -12
10:00 NW 19 gust 27 Drifting Snow 24 100.8 -4 87 -6 -13
9:00 NW 15 gust 23 Drifting Snow 24 100.8 -5 87 -6 -12
8:00 NW 16 gust 26 Light Snow 24 100.8 -5 86 -7 -13
7:00 NW 16 gust 22 Light Snow 24 100.8 -5 85 -7 -13
6:00 WNW 17 gust 22 Cloudy 16 100.8 -6 86 -8 -14
5:00 WNW 18 Cloudy 16 100.8 -5 85 -7 -14
4:00 NNW 18 gust 25 Cloudy 16 100.8 -6 84 -8 -14
3:00 NNW 21 gust 28 Cloudy 16 100.8 -6 85 -8 -15
2:00 N 30 gust 38 Light Snow 8 100.7 -6 84 -8 -17
 
Map of Arctic - Eastern Arctic marine weather areas Baker Lake Airport Chesterfield Inlet Airport Coral Harbour Airport Gjoa Haven Airport Kugaaruk Airport Rankin Inlet Airport Shepherd Bay Airport Whale Cove Airport Arctic Bay Brevoort Island Qikiqtarjuaq Airport Cape Dorset Airport Cape Dyer Cape Hooper Clyde Airport Grise Fiord Airport Hall Beach Airport Igloolik Airport Iqaluit Airport Longstaff Bluff Pangnirtung Airport Pond Inlet Airport Repulse Bay Airport Resolute Airport Resolution Island Rowley Island Airport Taloyoak Airport Wager Bay Akulivik Airport Ivujivik Airport Puvirnituq Airport Kangiqsujuaq Airport Kangirsuk Airport Quaqtaq Airport Tasiujaq Airport Cape Kakkiviak Cape Kiglapait Nain Airport Saglek Cape Mercy Kimmirut Airport Aupaluk Airport Salluit Airport Kangiqsualujjuaq Airport Fort Ross
Legend: buoyBuoy land stationLand Station